Location: Newark
(33.2833°N, 8.3333°W)
Time: 14:31:29
(UTC+00:00)

ISS - Visible Passes

Search period start: 19 September 2019 00:00
Search period end: 29 September 2019 00:00
Orbit: 411 x 421 km, 51.6° (Epoch: 19 September)

Date Brightness Start Highest point End Pass type
(mag) Time Alt. Az. Time Alt. Az. Time Alt. Az.
19 Sep -2.1 20:07:39 10° WSW 20:10:41 32° NW 20:12:15 21° N visible
20 Sep -3.3 19:18:54 10° SW 19:22:11 61° NW 19:25:28 10° NE visible
21 Sep -0.8 20:09:02 10° WNW 20:10:46 13° NNW 20:12:31 10° N visible
22 Sep -1.3 19:19:31 10° W 19:22:07 21° NW 19:24:43 10° NNE visible
